This is the latest recevied weather packets stored in our database for station/object KB3YCK-2. If no packets are shown the sender has not sent any weather packets the latest 10 day(s).
| Time | Temp. | Humidity | Pressure | Rain* | Wind** | Luminosity | Snow |
|---|---|---|---|---|---|---|---|
| 1777632326 | 3.89° C | 86% | 1014.8 hPa | 0 mm | - | 16 W/m² | - |
| 1777629016 | 3.89° C | 86% | 1014.6 hPa | 0 mm | - | 0 W/m² | - |
| 1777628114 | 3.89° C | 86% | 1014.5 hPa | 0 mm | - | 0 W/m² | - |
| 1777627216 | 3.89° C | 86% | 1014.5 hPa | 0 mm | - | 0 W/m² | - |
| 1777626936 | 3.89° C | 86% | 1014.5 hPa | 0 mm | - | 0 W/m² | - |
| 1777624237 | 4.44° C | 85% | 1014.2 hPa | 0 mm | - | 0 W/m² | - |
| 1777623617 | 5° C | 85% | 1014.1 hPa | 0 mm | - | 0 W/m² | - |
| 1777623015 | 5° C | 85% | 1014 hPa | 0 mm | - | 0 W/m² | - |
| 1777622436 | 5° C | 85% | 1013.9 hPa | 0 mm | - | 0 W/m² | - |
| 1777619118 | 6.11° C | 84% | 1013.6 hPa | 0 mm | - | 0 W/m² | - |
| 1777618837 | 6.11° C | 84% | 1013.6 hPa | 0 mm | - | 0 W/m² | - |
| 1777613704 | 7.22° C | 82% | 1013.4 hPa | 0 mm | - | 0 W/m² | - |
| 1777611014 | 7.78° C | 81% | 1013.1 hPa | 0 mm | - | 0 W/m² | - |
| 1777610406 | 8.33° C | 80% | 1013.2 hPa | 0 mm | - | 0 W/m² | - |
| 1777608605 | 8.33° C | 79% | 1013 hPa | 0 mm | - | 0 W/m² | - |
| 1777605612 | 8.89° C | 78% | 1012.7 hPa | 0 mm | - | 0 W/m² | - |
| 1777604103 | 9.44° C | 77% | 1012.9 hPa | 0 mm | - | 0 W/m² | - |
| 1777603502 | 9.44° C | 77% | 1012.9 hPa | 0 mm | - | 0 W/m² | - |
| 1777602608 | 10° C | 77% | 1012.9 hPa | 0 mm | - | 0 W/m² | - |
| 1777601103 | 10° C | 76% | 1012.6 hPa | 0 mm | - | 0 W/m² | - |
| 1777600805 | 10.56° C | 76% | 1012.5 hPa | 0 mm | - | 0 W/m² | - |
| 1777599602 | 10.56° C | 77% | 1012.2 hPa | 0 mm | - | 0 W/m² | - |
| 1777599303 | 10.56° C | 77% | 1012.2 hPa | 0 mm | - | 0 W/m² | - |
| 1777599004 | 11.11° C | 77% | 1012.2 hPa | 0 mm | - | 0 W/m² | - |
| 1777598404 | 11.11° C | 78% | 1012 hPa | 0 mm | - | 0 W/m² | - |
* Rain latest hour (hover to see other rain measurements)
** Current wind speed in m/s (hover to see current wind gust speed)